Change the Weather History Date:

Sunday, January 9, 2011

  Actual Average (KPLN) Record (KPLN)
Temperature  
Mean Temperature 16 °F -  
Max Temperature 28 °F 23 °F 42 °F (2002)
Min Temperature 3 °F 6 °F -30 °F (1977)
Degree Days  
Heating Degree Days 50    
Moisture  
Dew Point 11 °F    
Average Humidity 78    
Maximum Humidity 86    
Minimum Humidity 69    
Precipitation  
Precipitation 0.00 in - - ()
Sea Level Pressure  
Sea Level Pressure 30.16 in    
Wind  
Wind Speed 2 mph (NNE)    
Max Wind Speed 8 mph    
Max Gust Speed -    
Visibility 9 miles    
Events Snow    
Averages and records for this station are not official NWS values.
T = Trace of Precipitation, MM = Missing Value Source: NWS Daily Summary

Daily Weather History Graph

Daily Weather History Graph

Search for Another Location

Airport or City:

Trip Planner

Search our weather history database for the weather conditions in past years. The results will help you decide how hot, cold, wet, or windy it might be!

Date:

Astronomy

Jan. 09, 2011 Rise Set
Actual Time 8:18 AM EST 5:15 PM EST
Civil Twilight 7:44 AM EST 5:48 PM EST
Nautical Twilight 7:07 AM EST 6:25 PM EST
Astronomical Twilight 6:32 AM EST 7:01 PM EST
Moon 10:33 AM EST (1/9) 11:03 PM EST (1/9)
Length of Visible Light 10h 03m
Length of Day
8h 56m
Waxing Crescent, 25% of the Moon is Illuminated
Jan 9
Waxing Crescent
Jan 12
First Quarter
Jan 19
Full
Jan 26
Last Quarter
Feb 2
New

Hourly Weather History & Observations

Time (EST) Temp. Windchill Dew Point Humidity Pressure Visibility Wind Dir Wind Speed Gust Speed Precip Events Conditions
12:15 AM 17.6 °F - 14.0 °F 86% 29.96 in 10.0 mi Calm Calm - N/A   Clear
12:34 AM 17.6 °F - 12.2 °F 79% 29.97 in 10.0 mi Calm Calm - N/A   Clear
12:54 AM 14.0 °F - 10.4 °F 86% 29.98 in 10.0 mi Calm Calm - N/A   Scattered Clouds
1:15 AM 12.2 °F - 8.6 °F 85% 29.98 in 3.0 mi Calm Calm - N/A Snow Light Snow
1:34 AM 10.4 °F - 6.8 °F 85% 29.98 in 7.0 mi Calm Calm - N/A Snow Light Snow
1:54 AM 12.2 °F - 8.6 °F 85% 29.99 in 10.0 mi Calm Calm - N/A   Clear
2:15 AM 10.4 °F - 6.8 °F 85% 30.01 in 10.0 mi Calm Calm - N/A   Clear
2:34 AM 10.4 °F - 6.8 °F 85% 30.02 in 10.0 mi Calm Calm - N/A   Clear
2:54 AM 10.4 °F - 6.8 °F 85% 30.03 in 10.0 mi Calm Calm - N/A   Scattered Clouds
3:14 AM 10.4 °F - 5.0 °F 79% 30.04 in 10.0 mi Calm Calm - N/A   Clear
3:34 AM 8.6 °F 0.1 °F 3.2 °F 79% 30.05 in 10.0 mi North 4.6 mph - N/A   Clear
3:54 AM 8.6 °F - 5.0 °F 85% 30.06 in 10.0 mi Calm Calm - N/A   Clear
4:15 AM 6.8 °F -2.0 °F 3.2 °F 85% 30.07 in 10.0 mi NNE 4.6 mph - N/A   Clear
4:34 AM 8.6 °F 2.0 °F 5.0 °F 85% 30.07 in 10.0 mi North 3.5 mph - N/A   Clear
4:54 AM 8.6 °F - 5.0 °F 85% 30.08 in 10.0 mi Calm Calm - N/A   Clear
5:15 AM 8.6 °F - 3.2 °F 79% 30.08 in 10.0 mi Calm Calm - N/A   Scattered Clouds
5:34 AM 8.6 °F - 3.2 °F 79% 30.09 in 10.0 mi Calm Calm - N/A   Clear
5:54 AM 6.8 °F -0.1 °F 1.4 °F 79% 30.10 in 10.0 mi North 3.5 mph - N/A   Clear
6:15 AM 5.0 °F -4.1 °F 1.4 °F 85% 30.11 in 10.0 mi ENE 4.6 mph - N/A   Clear
6:34 AM 5.0 °F -4.1 °F -0.4 °F 78% 30.12 in 10.0 mi ENE 4.6 mph - N/A   Clear
6:54 AM 5.0 °F -2.1 °F -0.4 °F 78% 30.13 in 10.0 mi NE 3.5 mph - N/A Snow Light Snow
7:15 AM 3.2 °F - -0.4 °F 85% 30.14 in 10.0 mi Calm Calm - N/A Snow Light Snow
7:34 AM 3.2 °F -4.2 °F -0.4 °F 85% 30.14 in 10.0 mi NNE 3.5 mph - N/A   Clear
8:14 AM 5.0 °F -2.1 °F -0.4 °F 78% 30.15 in 10.0 mi ENE 3.5 mph - N/A   Clear
8:34 AM 5.0 °F - -0.4 °F 78% 30.16 in 10.0 mi Calm Calm - N/A   Clear
8:54 AM 5.0 °F - -0.4 °F 78% 30.16 in 10.0 mi Calm Calm - N/A   Clear
9:15 AM 8.6 °F 0.1 °F 3.2 °F 79% 30.17 in 10.0 mi ENE 4.6 mph - N/A   Clear
9:34 AM 5.0 °F -5.6 °F 1.4 °F 85% 30.17 in 10.0 mi NE 5.8 mph - N/A   Clear
9:54 AM 10.4 °F 2.2 °F 6.8 °F 85% 30.18 in 10.0 mi NE 4.6 mph - N/A   Clear
10:15 AM 12.2 °F 6.1 °F 6.8 °F 79% 30.19 in 10.0 mi ENE 3.5 mph - N/A   Clear
10:34 AM 14.0 °F - 10.4 °F 86% 30.19 in 10.0 mi Calm Calm - N/A   Clear
10:54 AM 17.6 °F - 12.2 °F 79% 30.19 in 10.0 mi Calm Calm - N/A   Clear
11:15 AM 19.4 °F - 14.0 °F 80% 30.19 in 10.0 mi Calm Calm - N/A   Clear
11:34 AM 21.2 °F 16.4 °F 14.0 °F 74% 30.19 in 10.0 mi ENE 3.5 mph - N/A   Clear
11:54 AM 21.2 °F - 14.0 °F 74% 30.19 in 10.0 mi Calm Calm - N/A   Scattered Clouds
12:15 PM 21.2 °F 16.4 °F 14.0 °F 74% 30.19 in 10.0 mi East 3.5 mph - N/A   Scattered Clouds
12:34 PM 23.0 °F - 15.8 °F 74% 30.19 in 10.0 mi Calm Calm - N/A   Mostly Cloudy
12:54 PM 26.6 °F - 17.6 °F 69% 30.19 in 10.0 mi Calm Calm - N/A   Mostly Cloudy
1:14 PM 26.6 °F 22.6 °F 17.6 °F 69% 30.19 in 10.0 mi SW 3.5 mph - N/A   Scattered Clouds
1:34 PM 26.6 °F 22.6 °F 17.6 °F 69% 30.20 in 10.0 mi SSW 3.5 mph - N/A   Scattered Clouds
1:54 PM 28.4 °F 22.2 °F 19.4 °F 69% 30.21 in 10.0 mi SSW 5.8 mph - N/A   Mostly Cloudy
2:14 PM 28.4 °F 20.4 °F 21.2 °F 74% 30.21 in 10.0 mi WSW 8.1 mph - N/A   Mostly Cloudy
2:34 PM 28.4 °F 22.2 °F 19.4 °F 69% 30.22 in 10.0 mi WSW 5.8 mph - N/A   Overcast
2:55 PM 28.4 °F 21.2 °F 21.2 °F 74% 30.23 in 10.0 mi WSW 6.9 mph - N/A   Overcast
3:14 PM 26.6 °F 19.1 °F 19.4 °F 74% 30.24 in 2.0 mi WSW 6.9 mph - N/A Snow Light Snow
3:34 PM 28.4 °F - 21.2 °F 74% 30.25 in 10.0 mi Calm Calm - N/A   Overcast
3:55 PM 28.4 °F 20.4 °F 19.4 °F 69% 30.26 in 5.0 mi West 8.1 mph - N/A Snow Light Snow
4:14 PM 26.6 °F 22.6 °F 19.4 °F 74% 30.27 in 1.5 mi NW 3.5 mph - N/A Snow Light Snow
4:34 PM 26.6 °F 21.2 °F 19.4 °F 74% 30.27 in 10.0 mi North 4.6 mph - N/A   Overcast
4:54 PM 26.6 °F - 19.4 °F 74% 30.29 in 10.0 mi Calm Calm - N/A   Overcast
5:14 PM 26.6 °F - 19.4 °F 74% 30.29 in 10.0 mi Calm Calm - N/A   Overcast
5:35 PM 24.8 °F 20.5 °F 19.4 °F 80% 30.30 in 10.0 mi North 3.5 mph - N/A   Overcast
5:54 PM 26.6 °F - 19.4 °F 74% 30.31 in 10.0 mi Calm Calm - N/A   Overcast
6:14 PM 26.6 °F - 19.4 °F 74% 30.31 in 10.0 mi Calm Calm - N/A   Overcast
6:34 PM 26.6 °F - 19.4 °F 74% 30.32 in 10.0 mi Calm Calm - N/A   Overcast
6:54 PM 26.6 °F - 19.4 °F 74% 30.33 in 10.0 mi Calm Calm - N/A Snow Light Snow
7:14 PM 26.6 °F - 19.4 °F 74% 30.33 in 10.0 mi Calm Calm - N/A   Overcast
7:35 PM 26.6 °F - 19.4 °F 74% 30.34 in 7.0 mi Calm Calm - N/A Snow Light Snow
7:54 PM 26.6 °F - 19.4 °F 74% 30.34 in 10.0 mi Calm Calm - N/A   Overcast
8:14 PM 26.6 °F 22.6 °F 19.4 °F 74% 30.34 in 10.0 mi North 3.5 mph - N/A   Overcast
8:34 PM 26.6 °F - 19.4 °F 74% 30.34 in 10.0 mi Calm Calm - N/A   Overcast
8:54 PM 24.8 °F - 19.4 °F 80% 30.35 in 10.0 mi Calm Calm - N/A   Overcast
9:14 PM 24.8 °F 20.5 °F 19.4 °F 80% 30.35 in 10.0 mi North 3.5 mph - N/A   Overcast
9:34 PM 24.8 °F 19.1 °F 19.4 °F 80% 30.34 in 10.0 mi North 4.6 mph - N/A   Overcast
9:54 PM 24.8 °F 19.1 °F 19.4 °F 80% 30.34 in 10.0 mi North 4.6 mph - N/A Snow Light Snow
10:15 PM 26.6 °F 21.2 °F 19.4 °F 74% 30.34 in 5.0 mi North 4.6 mph - N/A Snow Light Snow
10:34 PM 24.8 °F 20.5 °F 19.4 °F 80% 30.34 in 10.0 mi North 3.5 mph - N/A   Overcast
10:54 PM 23.0 °F - 19.4 °F 86% 30.34 in 10.0 mi Calm Calm - N/A   Scattered Clouds
11:15 PM 21.2 °F - 17.6 °F 86% 30.34 in 10.0 mi Calm Calm - N/A   Clear
11:34 PM 21.2 °F - 17.6 °F 86% 30.35 in 10.0 mi Calm Calm - N/A   Clear
11:54 PM 19.4 °F 14.3 °F 15.8 °F 86% 30.36 in 10.0 mi ENE 3.5 mph - N/A   Clear